Flag for Turkey Weather past 2 weeks in Mersin, Turkey

Now
61 °F

Broken clouds.


Feels Like: 61 °F
Forecast: 54 / 60 °F
Wind: 6 mph from Northeast

Location: Adana / Sakirpasa

Current Time: Mar 27, 2015 at 7:21:30 AM

Latest Report: Mar 27, 2015 at 6:50 AM


Visibility: N/A

Pressure: 30.07 "Hg

Humidity: 55%

Dew point: 45 °F

Location of MersinLocation

Historic Weather in Mersin — Graph

°F

Mersin temperature yesterday

Maximum temperature yesterday: 75 °F (at 1:20 PM)
Minimum temperature yesterday: 46 °F (at 4:50 AM)
Average temperature yesterday: 62 °F

Past Weeks' High & Low Weather Summary

 TemperatureHumidityPressure
High75 °F (Mar 26, 1:20 PM)100% (Mar 16, 6:50 AM)30.15 "Hg (Mar 16, 6:50 AM)
Low39 °F (Mar 23, 4:20 AM)15% (Mar 25, 3:50 PM)29.71 "Hg (Mar 21, 9:50 AM)
Average56 °F65%30.00 "Hg
* Reported Mar 12 6:20 AM — Mar 27 6:20 AM, Mersin, Weather by CustomWeather, © 2015

Note: Actual official high and low records may vary slightly from our data, if they occured in-between our weather recording intervals... More about our weather records

Advertising

Mersin weather history for previous 24 hours

 ConditionsComfort  
Time TempWeatherWind HumidityBarometerVisibility
6:20 AM
Fri, Mar 27
61 °FBroken clouds.8 mph55%30.07 "HgN/A
5:50 AM57 °FBroken clouds.6 mph67%30.07 "HgN/A
4:50 AM57 °FPassing clouds.9 mph67%30.07 "HgN/A
4:20 AM57 °FPassing clouds.8 mph67%30.07 "HgN/A
3:50 AM59 °FClear.2 mph59%30.07 "Hg10 mi
3:20 AM57 °FPassing clouds.3 mph67%30.09 "HgN/A
2:50 AM55 °FClear.5 mph72%30.07 "Hg10 mi
2:20 AM57 °FClear.7 mph67%30.07 "Hg10 mi
1:50 AM57 °FClear.3 mph67%30.07 "Hg10 mi
1:20 AM57 °FPassing clouds.3 mph67%30.09 "HgN/A
12:50 AM57 °FClear.2 mph72%30.09 "Hg10 mi
12:20 AM59 °FClear.1 mph63%30.09 "Hg10 mi
11:50 PM
Thu, Mar 26
59 °FClear.2 mph68%30.09 "Hg10 mi
10:50 PM59 °FClear.5 mph72%30.09 "Hg10 mi
10:20 PM57 °FPassing clouds.5 mph72%30.09 "HgN/A
9:50 PM59 °FClear.2 mph63%30.09 "Hg10 mi
9:20 PM59 °FClear.3 mph68%30.09 "Hg10 mi
8:50 PM59 °FClear.3 mph68%30.09 "Hg10 mi
8:20 PM59 °FPassing clouds.3 mph68%30.09 "HgN/A
7:50 PM61 °FPassing clouds.3 mph55%30.09 "HgN/A
7:20 PM61 °FPassing clouds.3 mph59%30.09 "HgN/A
6:50 PM66 °FPassing clouds.7 mph46%30.09 "HgN/A
6:20 PM66 °FPassing clouds.7 mph46%30.09 "HgN/A
5:50 PM68 °FPassing clouds.7 mph43%30.09 "HgN/A
5:20 PM68 °FSunny.6 mph46%30.07 "Hg10 mi
4:50 PM70 °FSunny.7 mph43%30.07 "Hg10 mi
4:20 PM73 °FPassing clouds.7 mph33%30.07 "HgN/A
3:50 PM75 °FPassing clouds.5 mph24%30.07 "HgN/A
3:20 PM75 °FPassing clouds.3 mph22%30.07 "HgN/A
2:50 PM75 °FSunny.3 mph22%30.09 "Hg10 mi
2:20 PM75 °FSunny.6 mph21%30.09 "Hg10 mi
1:50 PM75 °FPassing clouds.6 mph22%30.09 "HgN/A
1:20 PM75 °FPassing clouds.7 mph22%30.09 "HgN/A
12:50 PM73 °FPassing clouds.8 mph23%30.12 "HgN/A
12:20 PM73 °FPassing clouds.9 mph25%30.12 "HgN/A
11:50 AM72 °FPassing clouds.7 mph29%30.12 "HgN/A
11:20 AM72 °FPassing clouds.6 mph25%30.12 "HgN/A
10:50 AM70 °FPassing clouds.6 mph29%30.15 "HgN/A
10:20 AM70 °FScattered clouds.8 mph27%30.15 "HgN/A
9:50 AM68 °FScattered clouds.8 mph28%30.15 "HgN/A
9:20 AM66 °FScattered clouds.7 mph30%30.15 "HgN/A
8:50 AM64 °FScattered clouds.5 mph32%30.15 "HgN/A
8:20 AM61 °FScattered clouds.6 mph36%30.15 "HgN/A
7:50 AM57 °FScattered clouds.1 mph51%30.15 "HgN/A
7:20 AM54 °FPartly sunny.6 mph58%30.15 "HgN/A
Weather by CustomWeather, © 2015

See weather overviewHow to use our weather pages